TimeAKDT,TemperatureF,Dew PointF,Humidity,Sea Level PressureIn,VisibilityMPH,Wind Direction,Wind SpeedMPH,Gust SpeedMPH,PrecipitationIn,Events,Conditions,WindDirDegrees,DateUTC
12:16 AM,39.2,35.6,87,28.97,10.0,NNW,5.8,-,0.01,,Overcast,340,2013-10-09 08:16:00
12:36 AM,39.2,35.6,87,28.97,10.0,South,5.8,-,0.02,,Overcast,180,2013-10-09 08:36:00
12:56 AM,39.2,35.6,87,28.97,10.0,NNW,4.6,-,0.03,,Overcast,340,2013-10-09 08:56:00
1:16 AM,39.2,35.6,87,28.97,10.0,Calm,Calm,-,N/A,,Overcast,0,2013-10-09 09:16:00
1:36 AM,39.2,35.6,87,28.98,10.0,Calm,Calm,-,0.01,,Overcast,0,2013-10-09 09:36:00
1:56 AM,39.2,35.6,87,28.99,10.0,Calm,Calm,-,0.01,,Overcast,0,2013-10-09 09:56:00
2:16 AM,39.2,37.4,93,29.00,10.0,Calm,Calm,-,0.02,,Overcast,0,2013-10-09 10:16:00
2:36 AM,39.2,37.4,93,29.01,10.0,Calm,Calm,-,0.03,,Overcast,0,2013-10-09 10:36:00
2:56 AM,39.2,35.6,87,29.02,9.0,Calm,Calm,-,0.06,,Overcast,0,2013-10-09 10:56:00
3:16 AM,39.2,35.6,87,29.03,8.0,Calm,Calm,-,0.04,,Overcast,0,2013-10-09 11:16:00
3:36 AM,39.2,35.6,87,29.04,10.0,East,4.6,-,0.04,,Overcast,90,2013-10-09 11:36:00
3:56 AM,39.2,37.4,93,29.05,10.0,Calm,Calm,-,0.05,,Overcast,0,2013-10-09 11:56:00
4:16 AM,39.2,35.6,87,29.06,10.0,Calm,Calm,-,N/A,,Overcast,0,2013-10-09 12:16:00
4:36 AM,39.2,35.6,87,29.08,10.0,Calm,Calm,-,N/A,,Overcast,0,2013-10-09 12:36:00
4:56 AM,39.2,35.6,87,29.09,10.0,Calm,Calm,-,N/A,,Overcast,0,2013-10-09 12:56:00
5:16 AM,39.2,35.6,87,29.11,10.0,ESE,3.5,-,0.01,,Overcast,110,2013-10-09 13:16:00
5:36 AM,39.2,37.4,93,29.12,10.0,Calm,Calm,-,0.01,,Overcast,0,2013-10-09 13:36:00
5:56 AM,39.2,37.4,93,29.13,10.0,East,3.5,-,0.01,,Overcast,90,2013-10-09 13:56:00
6:16 AM,39.2,35.6,87,29.15,7.0,Calm,Calm,-,N/A,,Overcast,0,2013-10-09 14:16:00
6:36 AM,39.2,35.6,87,29.16,7.0,East,4.6,-,N/A,,Mostly Cloudy,90,2013-10-09 14:36:00
6:56 AM,39.2,35.6,87,29.17,10.0,SE,4.6,-,N/A,,Scattered Clouds,130,2013-10-09 14:56:00
7:16 AM,37.4,35.6,93,29.19,10.0,NE,3.5,-,N/A,,Scattered Clouds,40,2013-10-09 15:16:00
7:36 AM,37.4,35.6,93,29.21,10.0,Calm,Calm,-,N/A,,Scattered Clouds,0,2013-10-09 15:36:00
7:56 AM,37.4,35.6,93,29.23,10.0,Calm,Calm,-,N/A,,Scattered Clouds,0,2013-10-09 15:56:00
8:16 AM,37.4,35.6,93,29.24,10.0,ENE,4.6,-,N/A,,Scattered Clouds,70,2013-10-09 16:16:00
8:36 AM,37.4,33.8,87,29.26,10.0,Calm,Calm,-,N/A,,Scattered Clouds,0,2013-10-09 16:36:00
8:56 AM,37.4,33.8,87,29.27,10.0,Calm,Calm,-,N/A,,Mostly Cloudy,0,2013-10-09 16:56:00
9:16 AM,35.6,33.8,93,29.29,10.0,Calm,Calm,-,N/A,,Mostly Cloudy,0,2013-10-09 17:16:00
9:36 AM,35.6,33.8,93,29.31,10.0,Calm,Calm,-,N/A,,Mostly Cloudy,0,2013-10-09 17:36:00
9:56 AM,37.4,35.6,93,29.33,10.0,Calm,Calm,-,N/A,,Mostly Cloudy,0,2013-10-09 17:56:00
10:16 AM,39.2,35.6,87,29.34,10.0,Calm,Calm,-,N/A,,Mostly Cloudy,0,2013-10-09 18:16:00
10:36 AM,39.2,35.6,87,29.35,10.0,Calm,Calm,-,N/A,,Mostly Cloudy,0,2013-10-09 18:36:00
10:56 AM,41.0,35.6,81,29.36,10.0,ENE,3.5,-,N/A,,Scattered Clouds,60,2013-10-09 18:56:00
11:16 AM,42.8,37.4,81,29.38,10.0,Calm,Calm,-,N/A,,Scattered Clouds,0,2013-10-09 19:16:00
11:36 AM,42.8,37.4,81,29.39,10.0,Calm,Calm,-,N/A,,Scattered Clouds,0,2013-10-09 19:36:00
11:56 AM,44.6,37.4,76,29.40,10.0,Calm,Calm,-,N/A,,Mostly Cloudy,0,2013-10-09 19:56:00
12:16 PM,46.4,39.2,76,29.41,10.0,Calm,Calm,-,N/A,,Mostly Cloudy,0,2013-10-09 20:16:00
12:36 PM,44.6,37.4,76,29.42,10.0,Calm,Calm,-,N/A,,Mostly Cloudy,0,2013-10-09 20:36:00
12:56 PM,46.4,37.4,71,29.43,10.0,Calm,Calm,-,N/A,,Mostly Cloudy,0,2013-10-09 20:56:00
1:16 PM,46.4,39.2,76,29.44,10.0,Calm,Calm,-,N/A,,Mostly Cloudy,0,2013-10-09 21:16:00
1:36 PM,48.2,39.2,71,29.45,10.0,Calm,Calm,-,N/A,,Mostly Cloudy,0,2013-10-09 21:36:00
1:56 PM,46.4,39.2,76,29.46,10.0,West,6.9,-,N/A,,Mostly Cloudy,260,2013-10-09 21:56:00
2:16 PM,44.6,39.2,81,29.47,10.0,WSW,8.1,-,N/A,,Mostly Cloudy,250,2013-10-09 22:16:00
2:36 PM,46.4,37.4,71,29.48,10.0,Calm,Calm,-,N/A,,Mostly Cloudy,0,2013-10-09 22:36:00
2:56 PM,46.4,37.4,71,29.49,10.0,Calm,Calm,-,N/A,,Mostly Cloudy,0,2013-10-09 22:56:00
3:16 PM,48.2,37.4,66,29.50,10.0,WSW,4.6,-,N/A,,Mostly Cloudy,240,2013-10-09 23:16:00
3:36 PM,46.4,37.4,71,29.51,10.0,WSW,3.5,-,N/A,,Mostly Cloudy,250,2013-10-09 23:36:00
3:56 PM,48.2,37.4,66,29.53,10.0,SW,4.6,-,N/A,,Mostly Cloudy,220,2013-10-09 23:56:00
4:16 PM,46.4,35.6,66,29.54,10.0,West,3.5,-,N/A,,Mostly Cloudy,260,2013-10-10 00:16:00
4:36 PM,46.4,37.4,71,29.54,10.0,Calm,Calm,-,N/A,,Mostly Cloudy,0,2013-10-10 00:36:00
4:56 PM,46.4,37.4,71,29.55,10.0,Calm,Calm,-,N/A,,Mostly Cloudy,0,2013-10-10 00:56:00
5:16 PM,46.4,37.4,71,29.56,10.0,Calm,Calm,-,N/A,,Mostly Cloudy,0,2013-10-10 01:16:00
5:36 PM,48.2,37.4,66,29.55,10.0,Calm,Calm,-,N/A,,Mostly Cloudy,0,2013-10-10 01:36:00
5:56 PM,48.2,39.2,71,29.56,10.0,Calm,Calm,-,N/A,,Mostly Cloudy,0,2013-10-10 01:56:00
6:16 PM,46.4,39.2,76,29.56,10.0,Calm,Calm,-,N/A,,Mostly Cloudy,0,2013-10-10 02:16:00
6:36 PM,46.4,39.2,76,29.57,10.0,Calm,Calm,-,N/A,,Mostly Cloudy,0,2013-10-10 02:36:00
6:56 PM,44.6,39.2,81,29.58,10.0,Calm,Calm,-,N/A,,Partly Cloudy,0,2013-10-10 02:56:00
7:16 PM,42.8,35.6,76,29.58,10.0,Calm,Calm,-,N/A,,Partly Cloudy,0,2013-10-10 03:16:00
7:36 PM,42.8,35.6,76,29.59,10.0,Calm,Calm,-,N/A,,Partly Cloudy,0,2013-10-10 03:36:00
7:56 PM,41.0,35.6,81,29.61,10.0,Calm,Calm,-,N/A,,Scattered Clouds,0,2013-10-10 03:56:00
8:16 PM,44.6,37.4,76,29.61,10.0,East,3.5,-,N/A,,Scattered Clouds,100,2013-10-10 04:16:00
8:36 PM,39.2,33.8,81,29.62,10.0,East,6.9,-,N/A,,Scattered Clouds,80,2013-10-10 04:36:00
8:56 PM,39.2,33.8,81,29.63,10.0,ESE,3.5,-,N/A,,Scattered Clouds,110,2013-10-10 04:56:00
9:16 PM,39.2,35.6,87,29.63,10.0,Calm,Calm,-,N/A,,Scattered Clouds,0,2013-10-10 05:16:00
9:36 PM,39.2,33.8,81,29.65,10.0,Calm,Calm,-,N/A,,Scattered Clouds,0,2013-10-10 05:36:00
9:56 PM,37.4,33.8,87,29.65,7.0,Calm,Calm,-,N/A,,Scattered Clouds,0,2013-10-10 05:56:00
10:16 PM,39.2,33.8,81,29.66,10.0,Calm,Calm,-,N/A,,Clear,0,2013-10-10 06:16:00
10:36 PM,37.4,30.2,75,29.67,10.0,ESE,3.5,-,N/A,,Clear,120,2013-10-10 06:36:00
10:56 PM,37.4,32.0,81,29.67,10.0,Calm,Calm,-,N/A,,Clear,0,2013-10-10 06:56:00
11:16 PM,37.4,30.2,75,29.68,10.0,Calm,Calm,-,N/A,,Clear,0,2013-10-10 07:16:00
11:36 PM,37.4,32.0,81,29.68,10.0,North,5.8,-,N/A,,Clear,10,2013-10-10 07:36:00
11:56 PM,39.2,30.2,70,29.68,10.0,Calm,Calm,-,N/A,,Clear,0,2013-10-10 07:56:00